Simultaneous Nadir Overpasses (SNOs) Predictions

Prediction of SNOs between NOAA-19 and TERRA Satellite Orbit:

Table of predicted SNOs for the next 14.0 days since TLE Epoch: 12/17/2023
Index Date (NOAA-19) Time (NOAA-19) Lat,Lon (NOAA-19) SZA (NOAA-19 ) Date (TERRA) Time (TERRA) Lat,Lon (TERRA) SZA (TERRA ) Distance(km) Time Diff (sec)
1 12/17/2023 06:25:42 80.37, 107.34 104.50 12/17/2023 06:26:55 80.27, 107.95 104.47 16.11 73
2 12/17/2023 07:16:30 -80.59, -81.34 75.01 12/17/2023 07:16:07 -80.58, -81.45 75.04 2.29 23
3 12/19/2023 10:15:48 -80.56,-126.79 75.05 12/19/2023 10:16:33 -80.57,-126.71 75.02 1.73 45
4 12/19/2023 11:06:43 80.59, 41.18 105.04 12/19/2023 11:05:53 80.60, 41.25 105.04 1.37 50
5 12/21/2023 14:06:01 80.55, -4.51 104.94 12/21/2023 14:06:20 80.54, -4.43 104.95 1.51 19
6 12/23/2023 17:56:17 -80.56, 118.27 75.05 12/23/2023 17:56:06 -80.56, 118.27 75.06 0.10 11
7 12/25/2023 20:55:35 -80.52, 72.70 75.21 12/25/2023 20:56:32 -80.52, 72.74 75.19 0.82 57
8 12/25/2023 21:46:29 80.56,-119.24 104.89 12/25/2023 21:45:53 80.55,-119.34 104.86 2.28 36
9 12/28/2023 00:45:46 80.52,-164.70 104.71 12/28/2023 00:46:18 80.53,-164.66 104.73 0.98 32
10 12/28/2023 01:36:46 -80.57, 3.48 75.18 12/28/2023 01:35:38 -80.58, 3.52 75.19 1.15 68



Historial Predications of SNOs between NOAA-19 and TERRA
